Notices

What’s New in latest Release from January 14th 2021:

·       In Historical Hourly Data Report, users can switch between Local Standard Time (LST) and Universal Time Coordinates (UTC) time.

·       In Historical Hourly Data Report, we have an addition of a new column to display hourly precipitation data for the stations where the data are available, from 2001 onwards.

·       Expanded the Search Options of the Canadian Historical Weather Radar, users now able to select 24 hours (1 image every hour) image viewing duration.

Please note that the IDF dataset is available through this link: Intensity-Duration-Frequency (IDF) Files .

Hourly Data Report for November 13, 2020

MUSKOKA
ONTARIO
Current Station Operator: NAVCAN

44°58'29.000" N
79°18'12.000" W
281.90 m
6115529
71532
YQA

Download Data

Hourly Data (November 2020)
Hourly Data Report for November 13, 2020
TIME
LST
Temp Definition
°C
Dew Point Definition
°C
Rel Hum Definition
%
Precip. Amount Definition
mm

Wind Dir Definition
10's deg

Wind Spd Definition
km/h
Visibility Definition
km
Stn Press Definition
kPa
Hmdx Definition


Wind Chill Definition


Weather Definition


00:00 -2.9 -3.3 97 LegendMM   0 16.1 98.48     LegendNANA
01:00 -2.7 -3.2 96 LegendMM   0 16.1 98.43     LegendNANA
02:00 -1.6 -2.2 96 LegendMM 12 4 16.1 98.36   -3 LegendNANA
03:00 -2.5 -2.9 97 LegendMM LegendMM 4 16.1 98.32   -4 LegendNANA
04:00 -3.3 -3.6 98 LegendMM LegendMM 4 4.8 98.24   -5 Fog
05:00 -3.8 -4.2 97 LegendMM 10 4 16.1 98.15   -5 LegendNANA
06:00 -4.2 -4.8 96 LegendMM   0 16.1 98.13     LegendNANA
07:00 -2.4 -2.7 98 LegendMM LegendMM 4 16.1 98.11   -4 LegendNANA
08:00 -0.4 -0.8 97 LegendMM LegendMM 4 16.1 98.09   -2 LegendNANA
09:00 1.2 0.3 94 LegendMM LegendMM 4 16.1 98.05     LegendNANA
10:00 2.0 0.7 91 LegendMM 12 5 16.1 98.00     LegendNANA
11:00 3.3 1.5 88 LegendMM 14 8 16.1 97.94     LegendNANA
12:00 4.4 1.1 79 LegendMM 18 11 16.1 97.89     LegendNANA
13:00 4.7 1.6 80 LegendMM 21 5 16.1 97.88     LegendNANA
14:00 5.1 1.9 80 LegendMM 26 11 16.1 97.86     LegendNANA
15:00 5.0 2.4 83 LegendMM 25 5 16.1 97.89     LegendNANA
16:00 5.1 3.0 86 LegendMM 20 8 16.1 97.89     LegendNANA
17:00 4.3 3.1 92 LegendMM 29 13 16.1 97.94     Rain
18:00 4.3 2.5 88 LegendMM 27 11 16.1 98.02     LegendNANA
19:00 4.1 0.8 79 LegendMM 29 17 16.1 98.06     LegendNANA
20:00 3.9 -1.9 66 LegendMM 30 18 16.1 98.08     LegendNANA
21:00 3.9 -2.6 63 LegendMM 29 15 16.1 98.15     LegendNANA
22:00 2.7 -1.5 74 LegendMM 33 15 16.1 98.19     LegendNANA
23:00 2.2 -1.7 76 LegendMM 34 15 16.1 98.23     LegendNANA

Notes on Data Quality.

Legend

  • E = Estimated
  • M = Missing
  • NA = Not Available*
  • [empty] = Indicates an unobserved value
Date modified: